Year,Month,Day,Hour,Minute,Value (Times are PST for temperature in C)
2015,05,20,00,00,13.90
2015,05,20,00,01,13.90
2015,05,20,00,02,13.90
2015,05,20,00,03,13.90
2015,05,20,00,04,13.80
2015,05,20,00,05,13.80
2015,05,20,00,06,13.80
2015,05,20,00,07,13.80
2015,05,20,00,08,13.80
2015,05,20,00,09,13.80
2015,05,20,00,10,13.80
2015,05,20,00,11,13.70
2015,05,20,00,12,13.70
2015,05,20,00,13,13.70
2015,05,20,00,14,13.70
2015,05,20,00,15,13.70
2015,05,20,00,16,13.60
2015,05,20,00,17,13.60
2015,05,20,00,18,13.60
2015,05,20,00,19,13.60
2015,05,20,00,20,13.60
2015,05,20,00,21,13.50
2015,05,20,00,22,13.50
2015,05,20,00,23,13.50
2015,05,20,00,24,13.40
2015,05,20,00,25,13.40
2015,05,20,00,26,13.40
2015,05,20,00,27,13.40
2015,05,20,00,28,13.30
2015,05,20,00,29,13.30
2015,05,20,00,30,13.30
2015,05,20,00,31,13.30
2015,05,20,00,32,13.20
2015,05,20,00,33,13.20
2015,05,20,00,34,13.20
2015,05,20,00,35,13.20
2015,05,20,00,36,13.20
2015,05,20,00,37,13.20
2015,05,20,00,38,13.10
2015,05,20,00,39,13.10
2015,05,20,00,40,13.10
2015,05,20,00,41,13.10
2015,05,20,00,42,13.10
2015,05,20,00,43,13.10
2015,05,20,00,44,13.10
2015,05,20,00,45,13.10
2015,05,20,00,46,13.00
2015,05,20,00,47,13.00
2015,05,20,00,48,13.00
2015,05,20,00,49,13.00
2015,05,20,00,50,12.90
2015,05,20,00,51,12.90
2015,05,20,00,52,12.90
2015,05,20,00,53,12.90
2015,05,20,00,54,12.90
2015,05,20,00,55,12.90
2015,05,20,00,56,12.80
2015,05,20,00,57,12.80
2015,05,20,00,58,12.80
2015,05,20,00,59,12.80
2015,05,20,01,00,12.80
2015,05,20,01,01,12.80
2015,05,20,01,02,12.80
2015,05,20,01,03,12.80
2015,05,20,01,04,12.80
2015,05,20,01,05,12.70
2015,05,20,01,06,12.70
2015,05,20,01,07,12.70
2015,05,20,01,08,12.70
2015,05,20,01,09,12.70
2015,05,20,01,10,12.70
2015,05,20,01,11,12.70
2015,05,20,01,12,12.70
2015,05,20,01,13,12.60
2015,05,20,01,14,12.60
2015,05,20,01,15,12.60
2015,05,20,01,16,12.60
2015,05,20,01,17,12.60
2015,05,20,01,18,12.60
2015,05,20,01,19,12.60
2015,05,20,01,20,12.60
2015,05,20,01,21,12.50
2015,05,20,01,22,12.50
2015,05,20,01,23,12.50
2015,05,20,01,24,12.40
2015,05,20,01,25,12.40
2015,05,20,01,26,12.40
2015,05,20,01,27,12.40
2015,05,20,01,28,12.40
2015,05,20,01,29,12.40
2015,05,20,01,30,12.40
2015,05,20,01,31,12.30
2015,05,20,01,32,12.30
2015,05,20,01,33,12.30
2015,05,20,01,34,12.30
2015,05,20,01,35,12.30
2015,05,20,01,36,12.30
2015,05,20,01,37,12.30
2015,05,20,01,38,12.30
2015,05,20,01,39,12.30
2015,05,20,01,40,12.20
2015,05,20,01,41,12.20
2015,05,20,01,42,12.20
2015,05,20,01,43,12.20
2015,05,20,01,44,12.20
2015,05,20,01,45,12.20
2015,05,20,01,46,12.10
2015,05,20,01,47,12.10
2015,05,20,01,48,12.10
2015,05,20,01,49,12.10
2015,05,20,01,50,12.00
2015,05,20,01,51,12.00
2015,05,20,01,52,12.00
2015,05,20,01,53,11.90
2015,05,20,01,54,11.90
2015,05,20,01,55,11.90
2015,05,20,01,56,11.90
2015,05,20,01,57,11.90
2015,05,20,01,58,11.90
2015,05,20,01,59,11.90
2015,05,20,02,00,11.80
2015,05,20,02,01,11.80
2015,05,20,02,02,11.80
2015,05,20,02,03,11.80
2015,05,20,02,04,11.80
2015,05,20,02,05,11.80
2015,05,20,02,06,11.80
2015,05,20,02,07,11.80
2015,05,20,02,08,11.80
2015,05,20,02,09,11.80
2015,05,20,02,10,11.80
2015,05,20,02,11,11.80
2015,05,20,02,12,11.70
2015,05,20,02,13,11.70
2015,05,20,02,14,11.70
2015,05,20,02,15,11.70
2015,05,20,02,16,11.70
2015,05,20,02,17,11.60
2015,05,20,02,18,11.60
2015,05,20,02,19,11.60
2015,05,20,02,20,11.60
2015,05,20,02,21,11.60
2015,05,20,02,22,11.60
2015,05,20,02,23,11.60
2015,05,20,02,24,11.60
2015,05,20,02,25,11.50
2015,05,20,02,26,11.50
2015,05,20,02,27,11.50
2015,05,20,02,28,11.50
2015,05,20,02,29,11.50
2015,05,20,02,30,11.50
2015,05,20,02,31,11.50
2015,05,20,02,32,11.50
2015,05,20,02,33,11.40
2015,05,20,02,34,11.40
2015,05,20,02,35,11.40
2015,05,20,02,36,11.40
2015,05,20,02,37,11.40
2015,05,20,02,38,11.40
2015,05,20,02,39,11.40
2015,05,20,02,40,11.40
2015,05,20,02,41,11.40
2015,05,20,02,42,11.40
2015,05,20,02,43,11.40
2015,05,20,02,44,11.40
2015,05,20,02,45,11.40
2015,05,20,02,46,11.30
2015,05,20,02,47,11.30
2015,05,20,02,48,11.30
2015,05,20,02,49,11.30
2015,05,20,02,50,11.30
2015,05,20,02,51,11.30
2015,05,20,02,52,11.30
2015,05,20,02,53,11.30
2015,05,20,02,54,11.30
2015,05,20,02,55,11.30
2015,05,20,02,56,11.20
2015,05,20,02,57,11.20
2015,05,20,02,58,11.20
2015,05,20,02,59,11.20
2015,05,20,03,00,11.20
2015,05,20,03,01,11.20
2015,05,20,03,02,11.20
2015,05,20,03,06,11.10
2015,05,20,03,07,11.10
2015,05,20,03,08,11.10
2015,05,20,03,09,11.10
2015,05,20,03,10,11.00
2015,05,20,03,11,11.00
2015,05,20,03,12,11.00
2015,05,20,03,13,11.00
2015,05,20,03,14,10.90
2015,05,20,03,15,10.90
2015,05,20,03,16,10.90
2015,05,20,03,17,10.90
2015,05,20,03,18,10.90
2015,05,20,03,19,10.90
2015,05,20,03,20,10.80
2015,05,20,03,21,10.80
2015,05,20,03,22,10.80
2015,05,20,03,23,10.80
2015,05,20,03,24,10.80
2015,05,20,03,25,10.80
2015,05,20,03,26,10.80
2015,05,20,03,27,10.70
2015,05,20,03,28,10.70
2015,05,20,03,29,10.70
2015,05,20,03,30,10.70
2015,05,20,03,31,10.60
2015,05,20,03,32,10.60
2015,05,20,03,33,10.60
2015,05,20,03,34,10.60
2015,05,20,03,35,10.60
2015,05,20,03,36,10.60
2015,05,20,03,37,10.50
2015,05,20,03,38,10.50
2015,05,20,03,39,10.50
2015,05,20,03,40,10.50
2015,05,20,03,41,10.50
2015,05,20,03,42,10.40
2015,05,20,03,43,10.40
2015,05,20,03,44,10.40
2015,05,20,03,45,10.40
2015,05,20,03,46,10.40
2015,05,20,03,47,10.40
2015,05,20,03,48,10.40
2015,05,20,03,49,10.40
2015,05,20,03,50,10.40
2015,05,20,03,51,10.30
2015,05,20,03,52,10.30
2015,05,20,03,53,10.30
2015,05,20,03,54,10.30
2015,05,20,03,55,10.30
2015,05,20,03,56,10.30
2015,05,20,03,57,10.30
2015,05,20,03,58,10.30
2015,05,20,03,59,10.30
2015,05,20,04,00,10.30
2015,05,20,04,01,10.30
2015,05,20,04,02,10.20
2015,05,20,04,03,10.20
2015,05,20,04,04,10.20
2015,05,20,04,05,10.20
2015,05,20,04,06,10.20
2015,05,20,04,07,10.20
2015,05,20,04,08,10.20
2015,05,20,04,09,10.20
2015,05,20,04,10,10.20
2015,05,20,04,11,10.20
2015,05,20,04,12,10.20
2015,05,20,04,13,10.20
2015,05,20,04,14,10.20
2015,05,20,04,15,10.10
2015,05,20,04,16,10.10
2015,05,20,04,17,10.10
2015,05,20,04,18,10.10
2015,05,20,04,19,10.10
2015,05,20,04,20,10.10
2015,05,20,04,21,10.10
2015,05,20,04,22,10.10
2015,05,20,04,23,10.10
2015,05,20,04,24,10.10
2015,05,20,04,25,10.10
2015,05,20,04,26,10.10
2015,05,20,04,27,10.10
2015,05,20,04,28,10.10
2015,05,20,04,29,10.10
2015,05,20,04,30,10.10
2015,05,20,04,31,10.10
2015,05,20,04,32,10.10
2015,05,20,04,33,10.10
2015,05,20,04,34,10.10
2015,05,20,04,35,10.10
2015,05,20,04,36,10.10
2015,05,20,04,37,10.00
2015,05,20,04,38,10.10
2015,05,20,04,39,10.00
2015,05,20,04,40,10.00
2015,05,20,04,41,10.00
2015,05,20,04,42,10.00
2015,05,20,04,43,10.00
2015,05,20,04,44,10.00
2015,05,20,04,45,10.00
2015,05,20,04,46,10.00
2015,05,20,04,47,10.00
2015,05,20,04,48,10.00
2015,05,20,04,49,10.00
2015,05,20,04,50,9.90
2015,05,20,04,51,9.90
2015,05,20,04,52,9.90
2015,05,20,04,53,9.90
2015,05,20,04,54,9.90
2015,05,20,04,55,9.90
2015,05,20,04,56,9.90
2015,05,20,04,57,9.90
2015,05,20,04,58,9.90
2015,05,20,04,59,9.90
2015,05,20,05,00,9.90
2015,05,20,05,01,9.80
2015,05,20,05,02,9.80
2015,05,20,05,03,9.80
2015,05,20,05,04,9.80
2015,05,20,05,05,9.80
2015,05,20,05,06,9.80
2015,05,20,05,07,9.80
2015,05,20,05,08,9.70
2015,05,20,05,09,9.70
2015,05,20,05,10,9.70
2015,05,20,05,11,9.70
2015,05,20,05,12,9.70
2015,05,20,05,13,9.70
2015,05,20,05,14,9.70
2015,05,20,05,15,9.70
2015,05,20,05,16,9.60
2015,05,20,05,17,9.60
2015,05,20,05,18,9.60
2015,05,20,05,19,9.60
2015,05,20,05,20,9.60
2015,05,20,05,21,9.60
2015,05,20,05,22,9.60
2015,05,20,05,23,9.60
2015,05,20,05,24,9.60
2015,05,20,05,25,9.60
2015,05,20,05,26,9.60
2015,05,20,05,27,9.60
2015,05,20,05,28,9.60
2015,05,20,05,29,9.60
2015,05,20,05,30,9.60
2015,05,20,05,31,9.60
2015,05,20,05,32,9.60
2015,05,20,05,33,9.60
2015,05,20,05,34,9.60
2015,05,20,05,35,9.60
2015,05,20,05,36,9.60
2015,05,20,05,37,9.60
2015,05,20,05,38,9.60
2015,05,20,05,39,9.60
2015,05,20,05,40,9.60
2015,05,20,05,41,9.60
2015,05,20,05,42,9.60
2015,05,20,05,43,9.60
2015,05,20,05,44,9.60
2015,05,20,05,45,9.60
2015,05,20,05,46,9.60
2015,05,20,05,47,9.60
2015,05,20,05,48,9.60
2015,05,20,05,49,9.60
2015,05,20,05,50,9.60
2015,05,20,05,51,9.60
2015,05,20,05,52,9.60
2015,05,20,05,53,9.60
2015,05,20,05,54,9.60
2015,05,20,05,55,9.60
2015,05,20,05,56,9.60
2015,05,20,05,57,9.60
2015,05,20,05,58,9.60
2015,05,20,05,59,9.60
2015,05,20,06,00,9.60
2015,05,20,06,01,9.60
2015,05,20,06,02,9.60
2015,05,20,06,03,9.60
2015,05,20,06,04,9.60
2015,05,20,06,05,9.60
2015,05,20,06,06,9.60
2015,05,20,06,07,9.60
2015,05,20,06,08,9.60
2015,05,20,06,09,9.60
2015,05,20,06,10,9.60
2015,05,20,06,11,9.60
2015,05,20,06,12,9.60
2015,05,20,06,13,9.60
2015,05,20,06,14,9.70
2015,05,20,06,15,9.70
2015,05,20,06,16,9.70
2015,05,20,06,17,9.70
2015,05,20,06,18,9.70
2015,05,20,06,19,9.80
2015,05,20,06,20,9.80
2015,05,20,06,21,9.80
2015,05,20,06,22,9.80
2015,05,20,06,23,9.80
2015,05,20,06,24,9.90
2015,05,20,06,25,9.90
2015,05,20,06,26,9.90
2015,05,20,06,27,9.90
2015,05,20,06,28,9.90
2015,05,20,06,29,10.00
2015,05,20,06,30,10.00
2015,05,20,06,31,10.00
2015,05,20,06,32,10.00
2015,05,20,06,33,10.00
2015,05,20,06,34,10.00
2015,05,20,06,35,10.00
2015,05,20,06,36,10.00
2015,05,20,06,37,10.00
2015,05,20,06,38,10.10
2015,05,20,06,39,10.10
2015,05,20,06,40,10.10
2015,05,20,06,41,10.10
2015,05,20,06,42,10.10
2015,05,20,06,43,10.10
2015,05,20,06,44,10.10
2015,05,20,06,45,10.10
2015,05,20,06,46,10.10
2015,05,20,06,47,10.10
2015,05,20,06,48,10.20
2015,05,20,06,49,10.20
2015,05,20,06,50,10.20
2015,05,20,06,51,10.20
2015,05,20,06,52,10.20
2015,05,20,06,53,10.20
2015,05,20,06,54,10.20
2015,05,20,06,55,10.30
2015,05,20,06,56,10.30
2015,05,20,06,57,10.30
2015,05,20,06,58,10.30
2015,05,20,06,59,10.30
2015,05,20,07,00,10.30
2015,05,20,07,01,10.30
2015,05,20,07,02,10.30
2015,05,20,07,03,10.40
2015,05,20,07,04,10.40
2015,05,20,07,05,10.40
2015,05,20,07,06,10.40
2015,05,20,07,07,10.40
2015,05,20,07,08,10.50
2015,05,20,07,09,10.50
2015,05,20,07,10,10.50
2015,05,20,07,11,10.60
2015,05,20,07,12,10.60
2015,05,20,07,13,10.60
2015,05,20,07,14,10.70
2015,05,20,07,15,10.70
2015,05,20,07,16,10.70
2015,05,20,07,17,10.80
2015,05,20,07,18,10.80
2015,05,20,07,19,10.80
2015,05,20,07,20,10.90
2015,05,20,07,21,10.90
2015,05,20,07,22,11.00
2015,05,20,07,23,11.10
2015,05,20,07,24,11.10
2015,05,20,07,25,11.20
2015,05,20,07,26,11.20
2015,05,20,07,27,11.30
2015,05,20,07,28,11.30
2015,05,20,07,29,11.30
2015,05,20,07,30,11.30
2015,05,20,07,31,11.40
2015,05,20,07,32,11.40
2015,05,20,07,33,11.50
2015,05,20,07,34,11.50
2015,05,20,07,35,11.60
2015,05,20,07,36,11.60
2015,05,20,07,37,11.70
2015,05,20,07,38,11.70
2015,05,20,07,39,11.80
2015,05,20,07,40,11.80
2015,05,20,07,41,11.90
2015,05,20,07,42,12.00
2015,05,20,07,43,12.10
2015,05,20,07,44,12.10
2015,05,20,07,45,12.20
2015,05,20,07,46,12.30
2015,05,20,07,47,12.30
2015,05,20,07,48,12.40
2015,05,20,07,49,12.50
2015,05,20,07,50,12.60
2015,05,20,07,51,12.70
2015,05,20,07,52,12.70
2015,05,20,07,53,12.90
2015,05,20,07,54,13.00
2015,05,20,07,55,13.10
2015,05,20,07,56,13.20
2015,05,20,07,57,13.30
2015,05,20,07,58,13.40
2015,05,20,07,59,13.50
2015,05,20,08,00,13.60
2015,05,20,08,01,13.70
2015,05,20,08,02,13.80
2015,05,20,08,03,13.90
2015,05,20,08,04,14.00
2015,05,20,08,05,14.10
2015,05,20,08,06,14.20
2015,05,20,08,07,14.30
2015,05,20,08,08,14.40
2015,05,20,08,09,14.50
2015,05,20,08,10,14.60
2015,05,20,08,11,14.70
2015,05,20,08,12,14.90
2015,05,20,08,13,15.00
2015,05,20,08,14,15.00
2015,05,20,08,15,15.00
2015,05,20,08,16,15.20
2015,05,20,08,17,15.30
2015,05,20,08,18,15.40
2015,05,20,08,19,15.50
2015,05,20,08,20,15.60
2015,05,20,08,21,15.70
2015,05,20,08,22,15.80
2015,05,20,08,23,15.90
2015,05,20,08,24,16.00
2015,05,20,08,25,16.10
2015,05,20,08,26,16.10
2015,05,20,08,27,16.20
2015,05,20,08,28,16.30
2015,05,20,08,29,16.40
2015,05,20,08,30,16.50
2015,05,20,08,31,16.60
2015,05,20,08,32,16.70
2015,05,20,08,33,16.70
2015,05,20,08,34,16.80
2015,05,20,08,35,16.80
2015,05,20,08,36,16.90
2015,05,20,08,37,16.90
2015,05,20,08,38,16.90
2015,05,20,08,39,16.90
2015,05,20,08,40,17.00
2015,05,20,08,41,17.00
2015,05,20,08,42,17.10
2015,05,20,08,43,17.10
2015,05,20,08,44,17.10
2015,05,20,08,45,17.10
2015,05,20,08,46,17.10
2015,05,20,08,47,17.10
2015,05,20,08,48,17.10
2015,05,20,08,49,17.10
2015,05,20,08,50,17.10
2015,05,20,08,51,17.10
2015,05,20,08,52,17.10
2015,05,20,08,53,17.20
2015,05,20,08,54,17.20
2015,05,20,08,55,17.20
2015,05,20,08,56,17.30
2015,05,20,08,57,17.30
2015,05,20,08,58,17.30
2015,05,20,08,59,17.30
2015,05,20,09,00,17.40
2015,05,20,09,01,17.30
2015,05,20,09,02,17.40
2015,05,20,09,03,17.40
2015,05,20,09,04,17.40
2015,05,20,09,05,17.30
2015,05,20,09,06,17.30
2015,05,20,09,07,17.30
2015,05,20,09,08,17.20
2015,05,20,09,09,17.20
2015,05,20,09,10,17.20
2015,05,20,09,11,17.20
2015,05,20,09,12,17.20
2015,05,20,09,13,17.20
2015,05,20,09,14,17.20
2015,05,20,09,15,17.20
2015,05,20,09,16,17.20
2015,05,20,09,17,17.20
2015,05,20,09,18,17.20
2015,05,20,09,19,17.20
2015,05,20,09,20,17.20
2015,05,20,09,21,17.30
2015,05,20,09,22,17.30
2015,05,20,09,23,17.40
2015,05,20,09,24,17.40
2015,05,20,09,25,17.40
2015,05,20,09,26,17.50
2015,05,20,09,27,17.50
2015,05,20,09,28,17.50
2015,05,20,09,29,17.60
2015,05,20,09,30,17.60
2015,05,20,09,31,17.70
2015,05,20,09,32,17.70
2015,05,20,09,33,17.70
2015,05,20,09,34,17.80
2015,05,20,09,35,17.80
2015,05,20,09,36,17.80
2015,05,20,09,37,17.90
2015,05,20,09,38,17.90
2015,05,20,09,39,17.90
2015,05,20,09,40,18.00
2015,05,20,09,41,18.10
2015,05,20,09,42,18.10
2015,05,20,09,43,18.20
2015,05,20,09,44,18.20
2015,05,20,09,45,18.20
2015,05,20,09,46,18.30
2015,05,20,09,47,18.30
2015,05,20,09,48,18.30
2015,05,20,09,49,18.30
2015,05,20,09,50,18.30
2015,05,20,09,51,18.30
2015,05,20,09,52,18.30
2015,05,20,09,53,18.30
2015,05,20,09,54,18.40
2015,05,20,09,55,18.40
2015,05,20,09,56,18.50
2015,05,20,09,57,18.50
2015,05,20,09,58,18.60
2015,05,20,09,59,18.70
2015,05,20,10,00,18.80
2015,05,20,10,01,18.90
2015,05,20,10,02,18.90
2015,05,20,10,03,19.00
2015,05,20,10,04,19.10
2015,05,20,10,05,19.10
2015,05,20,10,06,19.10
2015,05,20,10,07,19.10
2015,05,20,10,08,19.00
2015,05,20,10,09,19.00
2015,05,20,10,10,19.00
2015,05,20,10,11,19.10
2015,05,20,10,12,19.10
2015,05,20,10,13,19.10
2015,05,20,10,14,19.20
2015,05,20,10,15,19.20
2015,05,20,10,16,19.20
2015,05,20,10,17,19.30
2015,05,20,10,18,19.40
2015,05,20,10,19,19.40
2015,05,20,10,20,19.50
2015,05,20,10,21,19.50
2015,05,20,10,22,19.50
2015,05,20,10,23,19.50
2015,05,20,10,24,19.50
2015,05,20,10,25,19.60
2015,05,20,10,26,19.60
2015,05,20,10,27,19.70
2015,05,20,10,28,19.70
2015,05,20,10,29,19.80
2015,05,20,10,30,19.80
2015,05,20,10,31,19.90
2015,05,20,10,32,19.90
2015,05,20,10,33,19.90
2015,05,20,10,34,19.90
2015,05,20,10,35,19.90
2015,05,20,10,36,20.00
2015,05,20,10,37,20.00
2015,05,20,10,38,20.00
2015,05,20,10,39,20.00
2015,05,20,10,40,20.00
2015,05,20,10,41,20.10
2015,05,20,10,42,20.10
2015,05,20,10,43,20.10
2015,05,20,10,44,20.10
2015,05,20,10,45,20.10
2015,05,20,10,46,20.00
2015,05,20,10,47,20.00
2015,05,20,10,48,20.00
2015,05,20,10,49,20.00
2015,05,20,10,50,20.00
2015,05,20,10,51,20.00
2015,05,20,10,52,20.00
2015,05,20,10,53,20.10
2015,05,20,10,54,20.10
2015,05,20,10,55,20.10
2015,05,20,10,56,20.10
2015,05,20,10,57,20.10
2015,05,20,10,58,20.20
2015,05,20,10,59,20.20
2015,05,20,11,00,20.30
2015,05,20,11,01,20.30
2015,05,20,11,02,20.40
2015,05,20,11,03,20.40
2015,05,20,11,04,20.50
2015,05,20,11,05,20.50
2015,05,20,11,06,20.60
2015,05,20,11,07,20.70
2015,05,20,11,08,20.80
2015,05,20,11,09,20.80
2015,05,20,11,10,20.80
2015,05,20,11,11,20.80
2015,05,20,11,12,20.80
2015,05,20,11,13,20.70
2015,05,20,11,14,20.70
2015,05,20,11,15,20.70
2015,05,20,11,16,20.70
2015,05,20,11,17,20.70
2015,05,20,11,18,20.70
2015,05,20,11,19,20.70
2015,05,20,11,20,20.80
2015,05,20,11,21,20.80
2015,05,20,11,22,20.80
2015,05,20,11,23,20.90
2015,05,20,11,24,20.90
2015,05,20,11,25,20.90
2015,05,20,11,26,21.00
2015,05,20,11,27,21.00
2015,05,20,11,28,21.10
2015,05,20,11,29,21.10
2015,05,20,11,30,21.10
2015,05,20,11,31,21.20
2015,05,20,11,32,21.20
2015,05,20,11,33,21.20
2015,05,20,11,34,21.30
2015,05,20,11,35,21.30
2015,05,20,11,36,21.30
2015,05,20,11,37,21.30
2015,05,20,11,38,21.40
2015,05,20,11,39,21.40
2015,05,20,11,40,21.40
2015,05,20,11,41,21.30
2015,05,20,11,42,21.30
2015,05,20,11,43,21.30
2015,05,20,11,44,21.30
2015,05,20,11,45,21.30
2015,05,20,11,46,21.30
2015,05,20,11,47,21.30
2015,05,20,11,48,21.40
2015,05,20,11,49,21.40
2015,05,20,11,50,21.40
2015,05,20,11,51,21.50
2015,05,20,11,52,21.50
2015,05,20,11,53,21.60
2015,05,20,11,54,21.60
2015,05,20,11,55,21.70
2015,05,20,11,56,21.70
2015,05,20,11,57,21.70
2015,05,20,11,58,21.70
2015,05,20,11,59,21.60
2015,05,20,12,00,21.60
2015,05,20,12,01,21.60
2015,05,20,12,02,21.60
2015,05,20,12,03,21.60
2015,05,20,12,04,21.60
2015,05,20,12,05,21.60
2015,05,20,12,06,21.70
2015,05,20,12,07,21.80
2015,05,20,12,08,21.80
2015,05,20,12,09,21.80
2015,05,20,12,10,21.80
2015,05,20,12,11,21.80
2015,05,20,12,12,21.70
2015,05,20,12,13,21.70
2015,05,20,12,14,21.60
2015,05,20,12,15,21.60
2015,05,20,12,16,21.60
2015,05,20,12,17,21.50
2015,05,20,12,18,21.50
2015,05,20,12,19,21.50
2015,05,20,12,20,21.50
2015,05,20,12,21,21.50
2015,05,20,12,22,21.60
2015,05,20,12,23,21.60
2015,05,20,12,24,21.60
2015,05,20,12,25,21.60
2015,05,20,12,26,21.70
2015,05,20,12,27,21.80
2015,05,20,12,28,21.80
2015,05,20,12,29,21.80
2015,05,20,12,30,21.90
2015,05,20,12,31,22.00
2015,05,20,12,32,22.10
2015,05,20,12,33,22.10
2015,05,20,12,34,22.20
2015,05,20,12,35,22.20
2015,05,20,12,36,22.20
2015,05,20,12,37,22.30
2015,05,20,12,38,22.30
2015,05,20,12,39,22.40
2015,05,20,12,40,22.40
2015,05,20,12,41,22.40
2015,05,20,12,42,22.40
2015,05,20,12,43,22.50
2015,05,20,12,44,22.60
2015,05,20,12,45,22.70
2015,05,20,12,46,22.70
2015,05,20,12,47,22.70
2015,05,20,12,48,22.60
2015,05,20,12,49,22.50
2015,05,20,12,50,22.50
2015,05,20,12,51,22.40
2015,05,20,12,52,22.40
2015,05,20,12,53,22.40
2015,05,20,12,54,22.40
2015,05,20,12,55,22.50
2015,05,20,12,56,22.50
2015,05,20,12,57,22.60
2015,05,20,12,58,22.60
2015,05,20,12,59,22.60
2015,05,20,13,00,22.70
2015,05,20,13,01,22.70
2015,05,20,13,02,22.70
2015,05,20,13,03,22.70
2015,05,20,13,04,22.70
2015,05,20,13,05,22.70
2015,05,20,13,06,22.80
2015,05,20,13,07,22.80
2015,05,20,13,08,22.70
2015,05,20,13,09,22.70
2015,05,20,13,10,22.60
2015,05,20,13,11,22.60
2015,05,20,13,12,22.50
2015,05,20,13,13,22.50
2015,05,20,13,14,22.50
2015,05,20,13,15,22.60
2015,05,20,13,16,22.60
2015,05,20,13,17,22.60
2015,05,20,13,18,22.60
2015,05,20,13,19,22.60
2015,05,20,13,20,22.60
2015,05,20,13,21,22.60
2015,05,20,13,22,22.70
2015,05,20,13,23,22.70
2015,05,20,13,24,22.70
2015,05,20,13,25,22.80
2015,05,20,13,26,22.90
2015,05,20,13,27,23.00
2015,05,20,13,28,23.10
2015,05,20,13,29,23.20
2015,05,20,13,30,23.20
2015,05,20,13,31,23.20
2015,05,20,13,32,23.20
2015,05,20,13,33,23.20
2015,05,20,13,34,23.20
2015,05,20,13,35,23.20
2015,05,20,13,36,23.20
2015,05,20,13,37,23.20
2015,05,20,13,38,23.10
2015,05,20,13,39,23.10
2015,05,20,13,40,23.00
2015,05,20,13,41,23.00
2015,05,20,13,42,23.00
2015,05,20,13,43,23.00
2015,05,20,13,44,23.00
2015,05,20,13,45,23.10
2015,05,20,13,46,23.00
2015,05,20,13,47,23.00
2015,05,20,13,48,23.00
2015,05,20,13,49,23.00
2015,05,20,13,50,23.00
2015,05,20,13,51,22.90
2015,05,20,13,52,22.90
2015,05,20,13,53,22.90
2015,05,20,13,54,22.90
2015,05,20,13,55,22.90
2015,05,20,13,56,23.00
2015,05,20,13,57,23.00
2015,05,20,13,58,22.90
2015,05,20,13,59,22.90
2015,05,20,14,00,22.80
2015,05,20,14,01,22.90
2015,05,20,14,02,22.90
2015,05,20,14,03,23.00
2015,05,20,14,04,23.00
2015,05,20,14,05,22.90
2015,05,20,14,06,22.90
2015,05,20,14,07,22.90
2015,05,20,14,08,22.80
2015,05,20,14,09,22.80
2015,05,20,14,10,22.80
2015,05,20,14,11,22.80
2015,05,20,14,12,22.80
2015,05,20,14,13,22.80
2015,05,20,14,14,22.80
2015,05,20,14,15,22.80
2015,05,20,14,16,22.80
2015,05,20,14,17,22.80
2015,05,20,14,18,22.80
2015,05,20,14,19,22.80
2015,05,20,14,20,22.90
2015,05,20,14,21,22.90
2015,05,20,14,22,23.00
2015,05,20,14,23,23.00
2015,05,20,14,24,23.00
2015,05,20,14,25,23.00
2015,05,20,14,26,23.00
2015,05,20,14,27,22.90
2015,05,20,14,28,23.00
2015,05,20,14,29,23.00
2015,05,20,14,30,23.10
2015,05,20,14,31,23.20
2015,05,20,14,32,23.20
2015,05,20,14,33,23.30
2015,05,20,14,34,23.40
2015,05,20,14,35,23.50
2015,05,20,14,36,23.60
2015,05,20,14,37,23.70
2015,05,20,14,38,23.80
2015,05,20,14,39,23.90
2015,05,20,14,40,24.00
2015,05,20,14,41,24.10
2015,05,20,14,42,24.20
2015,05,20,14,43,24.20
2015,05,20,14,44,24.20
2015,05,20,14,45,24.20
2015,05,20,14,46,24.20
2015,05,20,14,47,24.20
2015,05,20,14,48,24.20
2015,05,20,14,49,24.20
2015,05,20,14,50,24.10
2015,05,20,14,51,24.10
2015,05,20,14,52,24.10
2015,05,20,14,53,24.10
2015,05,20,14,54,24.10
2015,05,20,14,55,24.20
2015,05,20,14,56,24.20
2015,05,20,14,57,24.20
2015,05,20,14,58,24.30
2015,05,20,14,59,24.30
2015,05,20,15,00,24.30
2015,05,20,15,01,24.30
2015,05,20,15,02,24.40
2015,05,20,15,03,24.40
2015,05,20,15,04,24.40
2015,05,20,15,05,24.40
2015,05,20,15,06,24.30
2015,05,20,15,07,24.30
2015,05,20,15,08,24.30
2015,05,20,15,09,24.20
2015,05,20,15,10,24.20
2015,05,20,15,11,24.20
2015,05,20,15,12,24.30
2015,05,20,15,13,24.30
2015,05,20,15,14,24.30
2015,05,20,15,15,24.30
2015,05,20,15,16,24.30
2015,05,20,15,17,24.30
2015,05,20,15,18,24.30
2015,05,20,15,19,24.30
2015,05,20,15,20,24.30
2015,05,20,15,21,24.20
2015,05,20,15,22,24.20
2015,05,20,15,23,24.20
2015,05,20,15,24,24.20
2015,05,20,15,25,24.20
2015,05,20,15,26,24.20
2015,05,20,15,27,24.20
2015,05,20,15,28,24.20
2015,05,20,15,29,24.20
2015,05,20,15,30,24.30
2015,05,20,15,31,24.30
2015,05,20,15,32,24.30
2015,05,20,15,33,24.30
2015,05,20,15,34,24.30
2015,05,20,15,35,24.30
2015,05,20,15,36,24.40
2015,05,20,15,37,24.40
2015,05,20,15,38,24.40
2015,05,20,15,39,24.40
2015,05,20,15,40,24.50
2015,05,20,15,41,24.50
2015,05,20,15,42,24.60
2015,05,20,15,43,24.70
2015,05,20,15,44,24.70
2015,05,20,15,45,24.70
2015,05,20,15,46,24.70
2015,05,20,15,47,24.70
2015,05,20,15,48,24.70
2015,05,20,15,49,24.80
2015,05,20,15,50,24.80
2015,05,20,15,51,24.90
2015,05,20,15,52,24.90
2015,05,20,15,53,24.90
2015,05,20,15,54,24.90
2015,05,20,15,55,24.90
2015,05,20,15,56,24.90
2015,05,20,15,57,24.90
2015,05,20,15,58,24.90
2015,05,20,15,59,24.90
2015,05,20,16,00,24.90
2015,05,20,16,01,24.90
2015,05,20,16,02,24.90
2015,05,20,16,03,25.00
2015,05,20,16,04,25.00
2015,05,20,16,05,25.10
2015,05,20,16,06,25.10
2015,05,20,16,07,25.10
2015,05,20,16,08,25.10
2015,05,20,16,09,25.20
2015,05,20,16,10,25.20
2015,05,20,16,11,25.20
2015,05,20,16,12,25.20
2015,05,20,16,13,25.30
2015,05,20,16,14,25.30
2015,05,20,16,15,25.30
2015,05,20,16,16,25.30
2015,05,20,16,17,25.30
2015,05,20,16,18,25.20
2015,05,20,16,19,25.20
2015,05,20,16,20,25.20
2015,05,20,16,21,25.20
2015,05,20,16,22,25.20
2015,05,20,16,23,25.20
2015,05,20,16,24,25.20
2015,05,20,16,25,25.20
2015,05,20,16,26,25.20
2015,05,20,16,27,25.20
2015,05,20,16,28,25.20
2015,05,20,16,29,25.20
2015,05,20,16,30,25.20
2015,05,20,16,31,25.20
2015,05,20,16,32,25.20
2015,05,20,16,33,25.30
2015,05,20,16,34,25.30
2015,05,20,16,35,25.40
2015,05,20,16,36,25.40
2015,05,20,16,37,25.40
2015,05,20,16,38,25.40
2015,05,20,16,39,25.30
2015,05,20,16,40,25.30
2015,05,20,16,41,25.30
2015,05,20,16,42,25.20
2015,05,20,16,43,25.20
2015,05,20,16,44,25.30
2015,05,20,16,45,25.30
2015,05,20,16,46,25.30
2015,05,20,16,47,25.30
2015,05,20,16,48,25.40
2015,05,20,16,49,25.40
2015,05,20,16,50,25.40
2015,05,20,16,51,25.40
2015,05,20,16,52,25.50
2015,05,20,16,53,25.50
2015,05,20,16,54,25.50
2015,05,20,16,55,25.60
2015,05,20,16,56,25.60
2015,05,20,16,57,25.60
2015,05,20,16,58,25.60
2015,05,20,16,59,25.60
2015,05,20,17,00,25.60
2015,05,20,17,01,25.60
2015,05,20,17,02,25.60
2015,05,20,17,03,25.60
2015,05,20,17,04,25.70
2015,05,20,17,05,25.70
2015,05,20,17,06,25.80
2015,05,20,17,07,25.90
2015,05,20,17,08,25.90
2015,05,20,17,09,26.00
2015,05,20,17,10,26.10
2015,05,20,17,11,26.20
2015,05,20,17,12,26.20
2015,05,20,17,13,26.20
2015,05,20,17,14,26.20
2015,05,20,17,15,26.20
2015,05,20,17,16,26.10
2015,05,20,17,17,26.00
2015,05,20,17,18,25.90
2015,05,20,17,19,25.80
2015,05,20,17,20,25.80
2015,05,20,17,21,25.70
2015,05,20,17,22,25.70
2015,05,20,17,23,25.70
2015,05,20,17,24,25.60
2015,05,20,17,25,25.70
2015,05,20,17,26,25.70